• Em Portugal
  • Lista de países
  • Para 7 dias
  • Temperatura da água
  • Mapas de satélite
  • Mapa do tempo
  • Widgets de tempo
  • user-avatar
    Iniciar Sessão

    Previsão horária em Markuszowa

    Hoje, 20 Abril, Sexta-feira

    Tempo Temperatura Precipitação Vento Pressão Humidade
    00:00 +10°C° 0 mm 3 m/s 749 mmHg 78%
    01:00 +9°C° 0 mm 3 m/s 749 mmHg 79%
    02:00 +8°C° 0 mm 2 m/s 749 mmHg 82%
    03:00 +7°C° 0 mm 2 m/s 749 mmHg 85%
    04:00 +6°C° 0 mm 2 m/s 749 mmHg 87%
    05:00 +8°C° 0 mm 2 m/s 749 mmHg 83%
    06:00 +9°C° 0 mm 2 m/s 749 mmHg 78%
    07:00 +10°C° 0 mm 2 m/s 749 mmHg 73%
    08:00 +12°C° 0 mm 2 m/s 749 mmHg 66%
    09:00 +13°C° 0 mm 3 m/s 749 mmHg 59%
    10:00 +16°C° 0 mm 3 m/s 749 mmHg 52%
    11:00 +17°C° 0 mm 3 m/s 749 mmHg 48%
    12:00 +18°C° 0 mm 3 m/s 749 mmHg 45%
    13:00 +19°C° 0 mm 3 m/s 748 mmHg 41%
    14:00 +19°C° 0 mm 3 m/s 748 mmHg 42%
    15:00 +19°C° 0 mm 2 m/s 748 mmHg 42%
    16:00 +19°C° 0 mm 2 m/s 747 mmHg 42%
    17:00 +18°C° 0 mm 1 m/s 747 mmHg 48%
    18:00 +15°C° 0 mm 1 m/s 747 mmHg 53%
    19:00 +12°C° 0 mm 0 m/s 747 mmHg 59%
    20:00 +12°C° 0 mm 1 m/s 747 mmHg 61%
    21:00 +12°C° 0 mm 1 m/s 747 mmHg 62%
    22:00 +11°C° 0 mm 1 m/s 747 mmHg 64%
    23:00 +10°C° 0 mm 2 m/s 746 mmHg 65%

    Amanhã, 21 Abril, Sábado

    Tempo Temperatura Precipitação Vento Pressão Humidade
    00:00 +10°C° 0 mm 2 m/s 746 mmHg 66%
    01:00 +9°C° 0 mm 2 m/s 746 mmHg 67%
    02:00 +9°C° 0 mm 2 m/s 745 mmHg 67%
    03:00 +9°C° 0 mm 2 m/s 745 mmHg 68%
    04:00 +9°C° 0 mm 2 m/s 745 mmHg 68%
    05:00 +10°C° 0 mm 3 m/s 744 mmHg 65%
    06:00 +12°C° 0 mm 3 m/s 744 mmHg 61%
    07:00 +13°C° 0 mm 4 m/s 744 mmHg 58%
    08:00 +17°C° 0 mm 4 m/s 744 mmHg 54%
    09:00 +19°C° 0 mm 5 m/s 744 mmHg 50%
    10:00 +21°C° 0 mm 5 m/s 743 mmHg 46%
    11:00 +22°C° 0 mm 5 m/s 743 mmHg 45%
    12:00 +23°C° 0 mm 5 m/s 743 mmHg 45%
    13:00 +26°C° 0 mm 5 m/s 742 mmHg 44%
    14:00 +25°C° 0 mm 5 m/s 742 mmHg 47%
    15:00 +25°C° 0 mm 5 m/s 742 mmHg 50%
    16:00 +23°C° 0 mm 4 m/s 741 mmHg 53%
    17:00 +21°C° 0,1 mm 4 m/s 741 mmHg 60%
    18:00 +19°C° 0,1 mm 3 m/s 741 mmHg 68%
    19:00 +17°C° 0,1 mm 2 m/s 741 mmHg 75%
    20:00 +16°C° 0 mm 2 m/s 742 mmHg 77%
    21:00 +15°C° 0 mm 2 m/s 742 mmHg 78%
    22:00 +14°C° 0 mm 1 m/s 742 mmHg 79%
    23:00 +14°C° 0 mm 1 m/s 742 mmHg 80%

    Depois de amanhã, 22 Abril, Domingo

    Tempo Temperatura Precipitação Vento Pressão Humidade
    00:00 +13°C° 0 mm 1 m/s 742 mmHg 82%
    01:00 +12°C° 0 mm 1 m/s 742 mmHg 83%
    02:00 +11°C° 0 mm 1 m/s 742 mmHg 84%
    03:00 +10°C° 0 mm 1 m/s 742 mmHg 84%
    04:00 +9°C° 0 mm 1 m/s 742 mmHg 85%
    05:00 +11°C° 0 mm 1 m/s 742 mmHg 79%
    06:00 +12°C° 0 mm 2 m/s 742 mmHg 74%
    07:00 +13°C° 0 mm 2 m/s 743 mmHg 68%
    08:00 +14°C° 0 mm 2 m/s 742 mmHg 61%
    09:00 +16°C° 0 mm 3 m/s 742 mmHg 53%
    10:00 +17°C° 0 mm 3 m/s 742 mmHg 45%
    11:00 +18°C° 0 mm 3 m/s 742 mmHg 43%
    12:00 +19°C° 0 mm 3 m/s 742 mmHg 40%
    13:00 +19°C° 0 mm 4 m/s 742 mmHg 38%
    14:00 +19°C° 0 mm 3 m/s 741 mmHg 39%
    15:00 +19°C° 0 mm 3 m/s 741 mmHg 40%
    16:00 +19°C° 0 mm 3 m/s 740 mmHg 41%
    17:00 +17°C° 0 mm 2 m/s 740 mmHg 47%
    18:00 +15°C° 0 mm 1 m/s 740 mmHg 53%
    19:00 +13°C° 0 mm 1 m/s 740 mmHg 59%
    20:00 +12°C° 0 mm 1 m/s 740 mmHg 61%
    21:00 +11°C° 0 mm 0 m/s 741 mmHg 62%
    22:00 +10°C° 0 mm 0 m/s 741 mmHg 64%
    23:00 +9°C° 0 mm 0 m/s 741 mmHg 65%

    23 Abril, Segunda-feira

    Tempo Temperatura Precipitação Vento Pressão Humidade
    00:00 +9°C° 0 mm 0 m/s 740 mmHg 67%
    01:00 +9°C° 0 mm 0 m/s 740 mmHg 68%
    02:00 +10°C° 0 mm 1 m/s 740 mmHg 68%
    03:00 +9°C° 0 mm 1 m/s 740 mmHg 69%
    04:00 +9°C° 0 mm 1 m/s 740 mmHg 69%
    05:00 +11°C° 0 mm 1 m/s 740 mmHg 65%
    06:00 +13°C° 0 mm 1 m/s 739 mmHg 62%
    07:00 +14°C° 0 mm 1 m/s 739 mmHg 58%
    08:00 +16°C° 0 mm 1 m/s 739 mmHg 53%
    09:00 +19°C° 0 mm 2 m/s 739 mmHg 49%
    10:00 +21°C° 0 mm 2 m/s 739 mmHg 45%
    11:00 +23°C° 0 mm 2 m/s 738 mmHg 44%
    12:00 +24°C° 0 mm 2 m/s 738 mmHg 43%
    13:00 +25°C° 0 mm 3 m/s 737 mmHg 42%
    14:00 +24°C° 0,1 mm 3 m/s 737 mmHg 48%
    15:00 +24°C° 0,1 mm 3 m/s 736 mmHg 53%
    16:00 +22°C° 0,1 mm 4 m/s 736 mmHg 59%
    17:00 +21°C° 1,2 mm 4 m/s 735 mmHg 68%
    18:00 +19°C° 1,2 mm 4 m/s 735 mmHg 77%
    19:00 +17°C° 1,2 mm 3 m/s 735 mmHg 86%
    20:00 +17°C° 0,2 mm 4 m/s 735 mmHg 88%
    21:00 +15°C° 0,2 mm 4 m/s 735 mmHg 90%
    22:00 +14°C° 0,2 mm 4 m/s 735 mmHg 91%
    23:00 +14°C° 0,1 mm 5 m/s 736 mmHg 91%

    24 Abril, Terça-feira

    Tempo Temperatura Precipitação Vento Pressão Humidade
    00:00 +14°C° 0,1 mm 5 m/s 737 mmHg 91%
    01:00 +13°C° 0,1 mm 6 m/s 737 mmHg 91%
    02:00 +12°C° 0,1 mm 5 m/s 738 mmHg 91%
    03:00 +11°C° 0,1 mm 4 m/s 738 mmHg 91%
    04:00 +11°C° 0,1 mm 4 m/s 738 mmHg 91%
    05:00 +11°C° 0 mm 4 m/s 739 mmHg 87%
    06:00 +11°C° 0 mm 4 m/s 739 mmHg 82%
    07:00 +12°C° 0 mm 5 m/s 739 mmHg 78%
    08:00 +12°C° 0,1 mm 5 m/s 740 mmHg 73%
    09:00 +13°C° 0,1 mm 5 m/s 740 mmHg 67%
    10:00 +14°C° 0,1 mm 6 m/s 740 mmHg 61%
    11:00 +15°C° 0,1 mm 6 m/s 740 mmHg 59%
    12:00 +15°C° 0,1 mm 6 m/s 740 mmHg 57%
    13:00 +16°C° 0,1 mm 6 m/s 740 mmHg 54%
    14:00 +16°C° 0,1 mm 6 m/s 740 mmHg 56%
    15:00 +16°C° 0,1 mm 6 m/s 740 mmHg 57%
    16:00 +16°C° 0,1 mm 6 m/s 739 mmHg 58%
    17:00 +14°C° 0 mm 4 m/s 740 mmHg 64%
    18:00 +13°C° 0 mm 3 m/s 740 mmHg 70%
    19:00 +13°C° 0 mm 1 m/s 740 mmHg 76%
    20:00 +12°C° 0 mm 1 m/s 740 mmHg 78%
    21:00 +12°C° 0 mm 2 m/s 740 mmHg 80%
    22:00 +10°C° 0 mm 2 m/s 740 mmHg 82%
    23:00 +10°C° 0 mm 2 m/s 740 mmHg 82%

    25 Abril, Quarta-feira

    Tempo Temperatura Precipitação Vento Pressão Humidade
    00:00 +10°C° 0 mm 2 m/s 740 mmHg 82%
    01:00 +10°C° 0 mm 2 m/s 740 mmHg 82%
    02:00 +10°C° 0 mm 3 m/s 740 mmHg 80%
    03:00 +11°C° 0 mm 3 m/s 740 mmHg 78%
    04:00 +11°C° 0 mm 3 m/s 739 mmHg 75%
    05:00 +12°C° 0 mm 3 m/s 739 mmHg 73%
    06:00 +13°C° 0 mm 4 m/s 739 mmHg 71%
    07:00 +14°C° 0 mm 4 m/s 739 mmHg 69%
    08:00 +16°C° 0 mm 5 m/s 739 mmHg 64%
    09:00 +19°C° 0 mm 6 m/s 738 mmHg 58%
    10:00 +21°C° 0 mm 6 m/s 738 mmHg 53%
    11:00 +22°C° 0 mm 6 m/s 738 mmHg 50%
    12:00 +23°C° 0 mm 6 m/s 737 mmHg 48%
    13:00 +24°C° 0 mm 6 m/s 737 mmHg 45%
    14:00 +24°C° 0,2 mm 6 m/s 737 mmHg 48%
    15:00 +23°C° 0,2 mm 5 m/s 736 mmHg 51%
    16:00 +23°C° 0,2 mm 5 m/s 736 mmHg 54%
    17:00 +21°C° 0,1 mm 4 m/s 736 mmHg 59%
    18:00 +20°C° 0,1 mm 4 m/s 735 mmHg 64%
    19:00 +18°C° 0,1 mm 4 m/s 735 mmHg 69%
    20:00 +17°C° 0,4 mm 3 m/s 735 mmHg 76%
    21:00 +16°C° 0,4 mm 3 m/s 736 mmHg 83%
    22:00 +14°C° 0,4 mm 2 m/s 736 mmHg 90%
    23:00 +14°C° 0,6 mm 2 m/s 736 mmHg 90%
    Mostrar mais